Time,TemperatureF,DewpointF,PressureIn,WindDirection,WindDirectionDegrees,WindSpeedMPH,WindSpeedGustMPH,Humidity,HourlyPrecipIn,Conditions,Clouds,dailyrainin,SoftwareType,DateUTC
2013-03-31 00:02:00,55.0,-99.9,30.09,West,269,0.0,0.0,74,0.00,,,0.00,,2013-03-31 04:02:00,
2013-03-31 00:12:00,55.0,47.0,30.09,West,269,0.0,0.0,74,0.00,,,0.00,,2013-03-31 04:12:00,
2013-03-31 00:22:00,54.0,47.0,30.09,West,269,0.0,0.0,77,0.00,,,0.00,,2013-03-31 04:22:00,
2013-03-31 00:32:00,54.0,47.0,30.09,West,269,0.0,0.0,77,0.00,,,0.00,,2013-03-31 04:32:00,
2013-03-31 00:42:00,54.0,47.0,30.09,West,269,0.0,0.0,77,0.00,,,0.00,,2013-03-31 04:42:00,
2013-03-31 00:52:00,53.0,46.0,30.09,West,269,0.0,0.0,77,0.00,,,0.00,,2013-03-31 04:52:00,
2013-03-31 01:02:00,53.0,46.0,30.09,West,269,0.0,0.0,77,0.00,,,0.00,,2013-03-31 05:02:00,
2013-03-31 01:12:00,53.0,46.0,30.09,West,269,0.0,0.0,77,0.00,,,0.00,,2013-03-31 05:12:00,
2013-03-31 01:22:00,52.0,46.0,30.09,West,269,0.0,2.0,80,0.00,,,0.00,,2013-03-31 05:22:00,
2013-03-31 01:32:00,52.0,46.0,30.09,West,269,0.0,2.0,80,0.00,,,0.00,,2013-03-31 05:32:00,
2013-03-31 01:42:00,52.0,46.0,30.09,West,269,0.0,2.0,80,0.00,,,0.00,,2013-03-31 05:42:00,
2013-03-31 01:53:00,51.0,46.0,30.09,West,269,0.0,0.0,82,0.00,,,0.00,,2013-03-31 05:53:00,
2013-03-31 02:01:00,51.0,46.0,30.09,West,269,0.0,0.0,82,0.00,,,0.00,,2013-03-31 06:01:00,
2013-03-31 02:11:00,51.0,46.0,30.09,West,269,0.0,0.0,82,0.00,,,0.00,,2013-03-31 06:11:00,
2013-03-31 02:22:00,50.0,45.0,30.09,West,269,0.0,0.0,83,0.00,,,0.00,,2013-03-31 06:22:00,
2013-03-31 02:32:00,50.0,45.0,30.09,West,269,0.0,0.0,83,0.00,,,0.00,,2013-03-31 06:32:00,
2013-03-31 02:42:00,50.0,45.0,30.09,West,269,0.0,0.0,83,0.00,,,0.00,,2013-03-31 06:42:00,
2013-03-31 02:52:00,50.0,45.0,30.08,West,269,0.0,0.0,83,0.00,,,0.00,,2013-03-31 06:52:00,
2013-03-31 03:01:00,50.0,45.0,30.08,West,269,0.0,0.0,83,0.00,,,0.00,,2013-03-31 07:01:00,
2013-03-31 03:12:00,50.0,45.0,30.08,West,269,0.0,0.0,83,0.00,,,0.00,,2013-03-31 07:12:00,
2013-03-31 03:22:00,49.0,44.0,30.08,West,269,0.0,1.0,84,0.00,,,0.00,,2013-03-31 07:22:00,
2013-03-31 03:31:00,49.0,44.0,30.08,West,269,0.0,1.0,84,0.00,,,0.00,,2013-03-31 07:31:00,
2013-03-31 03:43:00,49.0,44.0,30.08,West,269,0.0,1.0,84,0.00,,,0.00,,2013-03-31 07:43:00,
2013-03-31 03:52:00,48.0,44.0,30.07,West,269,0.0,1.0,85,0.00,,,0.00,,2013-03-31 07:52:00,
2013-03-31 04:01:00,48.0,44.0,30.07,West,269,0.0,1.0,85,0.00,,,0.00,,2013-03-31 08:01:00,
2013-03-31 04:12:00,48.0,44.0,30.07,West,269,0.0,1.0,85,0.00,,,0.00,,2013-03-31 08:12:00,
2013-03-31 04:21:00,47.0,43.0,30.07,West,269,0.0,0.0,87,0.00,,,0.00,,2013-03-31 08:21:00,
2013-03-31 04:31:00,47.0,43.0,30.07,West,269,0.0,0.0,87,0.00,,,0.00,,2013-03-31 08:31:00,
2013-03-31 04:42:00,47.0,43.0,30.07,West,269,0.0,0.0,87,0.00,,,0.00,,2013-03-31 08:42:00,
2013-03-31 04:52:00,46.0,43.0,30.07,West,269,0.0,0.0,89,0.00,,,0.00,,2013-03-31 08:52:00,
2013-03-31 05:01:00,46.0,43.0,30.07,West,269,0.0,0.0,89,0.00,,,0.00,,2013-03-31 09:01:00,
2013-03-31 05:12:00,46.0,43.0,30.07,West,269,0.0,0.0,89,0.00,,,0.00,,2013-03-31 09:12:00,
2013-03-31 05:21:00,45.0,42.0,30.06,West,269,0.0,0.0,90,0.00,,,0.00,,2013-03-31 09:21:00,
2013-03-31 05:32:00,45.0,42.0,30.06,West,269,0.0,0.0,90,0.00,,,0.00,,2013-03-31 09:32:00,
2013-03-31 05:43:00,45.0,42.0,30.06,West,269,0.0,0.0,90,0.00,,,0.00,,2013-03-31 09:43:00,
2013-03-31 05:53:00,44.0,42.0,30.06,West,269,0.0,0.0,92,0.00,,,0.00,,2013-03-31 09:53:00,
2013-03-31 06:02:00,44.0,42.0,30.06,West,269,0.0,0.0,92,0.00,,,0.00,,2013-03-31 10:02:00,
2013-03-31 06:12:00,44.0,42.0,30.06,West,269,0.0,0.0,92,0.00,,,0.00,,2013-03-31 10:12:00,
2013-03-31 06:22:00,44.0,42.0,30.05,West,269,0.0,0.0,92,0.00,,,0.00,,2013-03-31 10:22:00,
2013-03-31 06:32:00,44.0,42.0,30.05,West,269,0.0,0.0,92,0.00,,,0.00,,2013-03-31 10:32:00,
2013-03-31 06:42:00,44.0,42.0,30.05,West,269,0.0,0.0,92,0.00,,,0.00,,2013-03-31 10:42:00,
2013-03-31 06:53:00,43.0,41.0,30.04,West,269,0.0,0.0,93,0.00,,,0.00,,2013-03-31 10:53:00,
2013-03-31 07:02:00,43.0,41.0,30.04,West,269,0.0,0.0,93,0.00,,,0.00,,2013-03-31 11:02:00,
2013-03-31 07:12:00,43.0,41.0,30.04,West,269,0.0,0.0,93,0.00,,,0.00,,2013-03-31 11:12:00,
2013-03-31 07:22:00,42.0,40.0,30.03,West,269,0.0,0.0,93,0.00,,,0.00,,2013-03-31 11:22:00,
2013-03-31 07:42:00,42.0,40.0,30.03,West,269,0.0,0.0,93,0.00,,,0.00,,2013-03-31 11:42:00,
2013-03-31 07:52:00,42.0,40.0,30.03,West,269,0.0,0.0,94,0.00,,,0.00,,2013-03-31 11:52:00,
2013-03-31 08:02:00,42.0,40.0,30.03,West,269,0.0,0.0,94,0.00,,,0.00,,2013-03-31 12:02:00,
2013-03-31 08:12:00,42.0,40.0,30.03,West,269,0.0,0.0,94,0.00,,,0.00,,2013-03-31 12:12:00,
2013-03-31 08:22:00,41.0,39.0,30.03,West,269,0.0,0.0,94,0.00,,,0.00,,2013-03-31 12:22:00,
2013-03-31 08:32:00,41.0,39.0,30.03,West,269,0.0,0.0,94,0.00,,,0.00,,2013-03-31 12:32:00,
2013-03-31 08:42:00,41.0,39.0,30.03,West,269,0.0,0.0,94,0.00,,,0.00,,2013-03-31 12:42:00,
2013-03-31 08:52:00,41.0,40.0,30.03,West,269,0.0,0.0,95,0.00,,,0.00,,2013-03-31 12:52:00,
2013-03-31 09:01:00,41.0,40.0,30.03,West,269,0.0,0.0,95,0.00,,,0.00,,2013-03-31 13:01:00,
2013-03-31 09:12:00,41.0,40.0,30.03,West,269,0.0,0.0,95,0.00,,,0.00,,2013-03-31 13:12:00,
2013-03-31 09:22:00,40.0,39.0,30.04,West,269,0.0,0.0,95,0.00,,,0.00,,2013-03-31 13:22:00,
2013-03-31 09:32:00,40.0,39.0,30.04,West,269,0.0,0.0,95,0.00,,,0.00,,2013-03-31 13:32:00,
2013-03-31 09:42:00,40.0,39.0,30.04,West,269,0.0,0.0,95,0.00,,,0.00,,2013-03-31 13:42:00,
2013-03-31 09:52:00,40.0,39.0,30.04,West,269,0.0,0.0,95,0.00,,,0.00,,2013-03-31 13:52:00,
2013-03-31 10:01:00,40.0,39.0,30.04,West,269,0.0,0.0,95,0.00,,,0.00,,2013-03-31 14:01:00,
2013-03-31 10:11:00,40.0,39.0,30.04,West,269,0.0,0.0,95,0.00,,,0.00,,2013-03-31 14:11:00,
2013-03-31 10:22:00,40.0,39.0,30.04,West,269,0.0,0.0,95,0.00,,,0.00,,2013-03-31 14:22:00,
2013-03-31 10:32:00,40.0,39.0,30.04,West,269,0.0,0.0,95,0.00,,,0.00,,2013-03-31 14:32:00,
2013-03-31 10:43:00,40.0,39.0,30.04,West,269,0.0,0.0,95,0.00,,,0.00,,2013-03-31 14:43:00,
2013-03-31 10:52:00,40.0,39.0,30.05,West,269,0.0,0.0,95,0.00,,,0.00,,2013-03-31 14:52:00,
2013-03-31 11:01:00,40.0,39.0,30.05,West,269,0.0,0.0,95,0.00,,,0.00,,2013-03-31 15:01:00,
2013-03-31 11:12:00,40.0,39.0,30.05,West,269,0.0,0.0,95,0.00,,,0.00,,2013-03-31 15:12:00,
2013-03-31 11:22:00,41.0,40.0,30.05,West,269,0.0,0.0,95,0.00,,,0.00,,2013-03-31 15:22:00,
2013-03-31 11:33:00,41.0,40.0,30.05,West,269,0.0,0.0,95,0.00,,,0.00,,2013-03-31 15:33:00,
2013-03-31 11:43:00,41.0,40.0,30.05,West,269,0.0,0.0,95,0.00,,,0.00,,2013-03-31 15:43:00,
2013-03-31 11:53:00,42.0,41.0,30.04,West,269,0.0,0.0,96,0.00,,,0.00,,2013-03-31 15:53:00,
2013-03-31 12:02:00,42.0,41.0,30.04,West,269,0.0,0.0,96,0.00,,,0.00,,2013-03-31 16:02:00,
2013-03-31 12:13:00,42.0,41.0,30.04,West,269,0.0,0.0,96,0.00,,,0.00,,2013-03-31 16:13:00,
2013-03-31 12:22:00,45.0,44.0,30.04,West,269,0.0,1.0,95,0.00,,,0.00,,2013-03-31 16:22:00,
2013-03-31 12:32:00,45.0,44.0,30.04,West,269,0.0,1.0,95,0.00,,,0.00,,2013-03-31 16:32:00,
2013-03-31 12:43:00,45.0,44.0,30.04,West,269,0.0,1.0,95,0.00,,,0.00,,2013-03-31 16:43:00,
2013-03-31 12:53:00,49.0,46.0,30.03,West,269,0.0,0.0,89,0.00,,,0.00,,2013-03-31 16:53:00,
2013-03-31 13:02:00,49.0,46.0,30.03,West,269,0.0,0.0,89,0.00,,,0.00,,2013-03-31 17:02:00,
2013-03-31 13:12:00,49.0,46.0,30.03,West,269,0.0,0.0,89,0.00,,,0.00,,2013-03-31 17:12:00,
2013-03-31 13:22:00,52.0,46.0,30.03,WSW,254,0.0,3.0,80,0.00,,,0.00,,2013-03-31 17:22:00,
2013-03-31 13:31:00,52.0,46.0,30.03,WSW,254,0.0,3.0,80,0.00,,,0.00,,2013-03-31 17:31:00,
2013-03-31 13:43:00,52.0,46.0,30.03,WSW,254,0.0,3.0,80,0.00,,,0.00,,2013-03-31 17:43:00,
2013-03-31 13:52:00,55.0,46.0,30.03,WSW,244,0.0,4.0,71,0.00,,,0.00,,2013-03-31 17:52:00,
2013-03-31 14:02:00,55.0,46.0,30.03,WSW,244,0.0,4.0,71,0.00,,,0.00,,2013-03-31 18:02:00,
2013-03-31 14:12:00,55.0,46.0,30.03,WSW,244,0.0,4.0,71,0.00,,,0.00,,2013-03-31 18:12:00,
2013-03-31 14:21:00,58.0,47.0,30.03,South,183,2.0,4.0,67,0.00,,,0.00,,2013-03-31 18:21:00,
2013-03-31 14:32:00,58.0,47.0,30.03,South,183,2.0,4.0,67,0.00,,,0.00,,2013-03-31 18:32:00,
2013-03-31 14:42:00,58.0,47.0,30.03,South,183,2.0,4.0,67,0.00,,,0.00,,2013-03-31 18:42:00,
2013-03-31 14:53:00,60.0,46.0,30.03,SSE,165,2.0,5.0,60,0.00,,,0.00,,2013-03-31 18:53:00,
2013-03-31 15:02:00,60.0,46.0,30.03,SSE,165,2.0,5.0,60,0.00,,,0.00,,2013-03-31 19:02:00,
2013-03-31 15:12:00,60.0,46.0,30.03,SSE,165,2.0,5.0,60,0.00,,,0.00,,2013-03-31 19:12:00,
2013-03-31 15:21:00,63.0,47.0,30.02,WSW,253,2.0,5.0,56,0.00,,,0.00,,2013-03-31 19:21:00,
2013-03-31 15:32:00,63.0,47.0,30.02,WSW,253,2.0,5.0,56,0.00,,,0.00,,2013-03-31 19:32:00,
2013-03-31 15:43:00,63.0,47.0,30.02,WSW,253,2.0,5.0,56,0.00,,,0.00,,2013-03-31 19:43:00,
2013-03-31 15:54:00,64.0,47.0,30.02,SW,233,2.0,5.0,55,0.00,,,0.00,,2013-03-31 19:54:00,
2013-03-31 16:02:00,64.0,47.0,30.02,SW,233,2.0,5.0,55,0.00,,,0.00,,2013-03-31 20:02:00,
2013-03-31 16:12:00,64.0,47.0,30.02,SW,233,2.0,5.0,55,0.00,,,0.00,,2013-03-31 20:12:00,
2013-03-31 16:22:00,65.0,46.0,30.01,WSW,257,3.0,8.0,51,0.00,,,0.00,,2013-03-31 20:22:00,
2013-03-31 16:32:00,65.0,46.0,30.01,WSW,257,3.0,8.0,51,0.00,,,0.00,,2013-03-31 20:32:00,
2013-03-31 16:43:00,65.0,46.0,30.01,WSW,257,3.0,8.0,51,0.00,,,0.00,,2013-03-31 20:43:00,
2013-03-31 16:52:00,66.0,47.0,30.00,SW,219,2.0,6.0,51,0.00,,,0.00,,2013-03-31 20:52:00,
2013-03-31 17:02:00,66.0,47.0,30.00,SW,219,2.0,6.0,51,0.00,,,0.00,,2013-03-31 21:02:00,
2013-03-31 17:12:00,66.0,47.0,30.00,SW,219,2.0,6.0,51,0.00,,,0.00,,2013-03-31 21:12:00,
2013-03-31 17:22:00,68.0,48.0,29.99,West,259,0.0,5.0,48,0.00,,,0.00,,2013-03-31 21:22:00,
2013-03-31 17:33:00,68.0,48.0,29.99,West,259,0.0,5.0,48,0.00,,,0.00,,2013-03-31 21:33:00,
2013-03-31 17:43:00,68.0,48.0,29.99,West,259,0.0,5.0,48,0.00,,,0.00,,2013-03-31 21:43:00,
2013-03-31 17:53:00,69.0,47.0,29.98,SSW,192,2.0,4.0,46,0.00,,,0.00,,2013-03-31 21:53:00,
2013-03-31 18:02:00,69.0,47.0,29.98,SSW,192,2.0,4.0,46,0.00,,,0.00,,2013-03-31 22:02:00,
2013-03-31 18:13:00,69.0,47.0,29.98,SSW,192,2.0,4.0,46,0.00,,,0.00,,2013-03-31 22:13:00,
2013-03-31 18:23:00,69.0,47.0,29.96,WSW,247,3.0,5.0,45,0.00,,,0.00,,2013-03-31 22:23:00,
2013-03-31 18:32:00,69.0,47.0,29.96,WSW,247,3.0,5.0,45,0.00,,,0.00,,2013-03-31 22:32:00,
2013-03-31 18:43:00,69.0,47.0,29.96,WSW,247,3.0,5.0,45,0.00,,,0.00,,2013-03-31 22:43:00,
2013-03-31 18:53:00,70.0,47.0,29.95,SSW,205,3.0,7.0,44,0.00,,,0.00,,2013-03-31 22:53:00,
2013-03-31 19:02:00,70.0,47.0,29.95,SSW,205,3.0,7.0,44,0.00,,,0.00,,2013-03-31 23:02:00,
2013-03-31 19:12:00,70.0,47.0,29.95,SSW,205,3.0,7.0,44,0.00,,,0.00,,2013-03-31 23:12:00,
2013-03-31 19:22:00,70.0,47.0,29.94,WSW,242,2.0,5.0,44,0.00,,,0.00,,2013-03-31 23:22:00,
2013-03-31 19:31:00,70.0,47.0,29.94,WSW,242,2.0,5.0,44,0.00,,,0.00,,2013-03-31 23:31:00,
2013-03-31 19:43:00,70.0,47.0,29.94,WSW,242,2.0,5.0,44,0.00,,,0.00,,2013-03-31 23:43:00,
2013-03-31 19:53:00,70.0,47.0,29.94,West,270,3.0,5.0,44,0.00,,,0.00,,2013-03-31 23:53:00,
2013-03-31 20:01:00,70.0,47.0,29.94,West,270,3.0,5.0,44,0.00,,,0.00,,2013-04-01 00:01:00,
2013-03-31 20:12:00,70.0,47.0,29.94,West,270,3.0,5.0,44,0.00,,,0.00,,2013-04-01 00:12:00,
2013-03-31 20:22:00,69.0,47.0,29.93,SSW,202,2.0,5.0,45,0.00,,,0.00,,2013-04-01 00:22:00,
2013-03-31 20:31:00,69.0,47.0,29.93,SSW,202,2.0,5.0,45,0.00,,,0.00,,2013-04-01 00:31:00,
2013-03-31 20:43:00,69.0,47.0,29.93,SSW,202,2.0,5.0,45,0.00,,,0.00,,2013-04-01 00:43:00,
2013-03-31 20:52:00,69.0,48.0,29.93,WSW,252,1.0,4.0,47,0.00,,,0.00,,2013-04-01 00:52:00,
2013-03-31 21:01:00,69.0,48.0,29.93,WSW,252,1.0,4.0,47,0.00,,,0.00,,2013-04-01 01:01:00,
2013-03-31 21:12:00,69.0,48.0,29.93,WSW,252,1.0,4.0,47,0.00,,,0.00,,2013-04-01 01:12:00,
2013-03-31 21:22:00,68.0,47.0,29.92,West,263,1.0,4.0,47,0.00,,,0.00,,2013-04-01 01:22:00,
2013-03-31 21:31:00,68.0,47.0,29.92,West,263,1.0,4.0,47,0.00,,,0.00,,2013-04-01 01:31:00,
2013-03-31 21:43:00,68.0,47.0,29.92,West,263,1.0,4.0,47,0.00,,,0.00,,2013-04-01 01:43:00,
2013-03-31 21:52:00,67.0,48.0,29.92,WSW,252,0.0,3.0,50,0.00,,,0.00,,2013-04-01 01:52:00,
2013-03-31 22:02:00,67.0,48.0,29.92,WSW,252,0.0,3.0,50,0.00,,,0.00,,2013-04-01 02:02:00,
2013-03-31 22:12:00,67.0,48.0,29.92,WSW,252,0.0,3.0,50,0.00,,,0.00,,2013-04-01 02:12:00,
2013-03-31 22:21:00,65.0,47.0,29.92,WSW,252,0.0,2.0,53,0.00,,,0.00,,2013-04-01 02:21:00,
2013-03-31 22:32:00,65.0,47.0,29.92,WSW,252,0.0,2.0,53,0.00,,,0.00,,2013-04-01 02:32:00,
2013-03-31 22:42:00,65.0,47.0,29.92,WSW,252,0.0,2.0,53,0.00,,,0.00,,2013-04-01 02:42:00,
2013-03-31 22:52:00,62.0,47.0,29.92,WSW,252,0.0,0.0,58,0.00,,,0.00,,2013-04-01 02:52:00,
2013-03-31 23:02:00,62.0,47.0,29.92,WSW,252,0.0,0.0,58,0.00,,,0.00,,2013-04-01 03:02:00,
2013-03-31 23:12:00,62.0,47.0,29.92,WSW,252,0.0,0.0,58,0.00,,,0.00,,2013-04-01 03:12:00,
2013-03-31 23:22:00,59.0,46.0,29.93,WSW,252,0.0,0.0,63,0.00,,,0.00,,2013-04-01 03:22:00,
2013-03-31 23:32:00,59.0,46.0,29.93,WSW,252,0.0,0.0,63,0.00,,,0.00,,2013-04-01 03:32:00,
2013-03-31 23:43:00,59.0,46.0,29.93,WSW,252,0.0,0.0,63,0.00,,,0.00,,2013-04-01 03:43:00,
2013-03-31 23:53:00,56.0,47.0,29.93,WSW,252,0.0,0.0,71,0.00,,,0.00,,2013-04-01 03:53:00,